Regional Weather Roundup
Issued by NWS State College, PA

Home | Current Version | Previous Version | Graphics & Text | Print | Product List | Glossary Off
Versions: 1 2 3 4 5 6 7 8 9 10 11 12 13 14 15 16 17 18 19 20 21 22 23 24 25 26 27 28 29 30 31 32 33 34 35 36 37 38 39 40 41 42 43 44 45 46 47 48 49 50

000
ASUS41 KCTP 080810
RWRCTP

REGIONAL WEATHER ROUNDUP
NATIONAL WEATHER SERVICE STATE COLLEGE PA
300 AM EST THU DEC 08 2016

Note: "fair" indicates few or no clouds below 12,000 feet with no
significant weather and/or obstructions to visibility.

* = STATION THAT DOES NOT REPORT PRECIPITATION /E.G. RAIN...SNOW...ETC/
    THUNDER OR FOG.

PAZ002>004-007>009-013>016-020>023-029>032-080900-
WESTERN PENNSYLVANIA

CITY           SKY/WX    TMP DP  RH WIND       PRES   REMARKS
ERIE           CLOUDY    34  24  67 SW16G23   29.99S
MEADVILLE      CLOUDY    30  22  72 SW7       29.99S
FRANKLIN*        N/A     30  19  64 SW5       30.00F
NEW CASTLE     CLOUDY    32  24  72 SW7       30.04S
BEAVER COUNTY  NOT AVBL
BUTLER*        CLEAR     32  21  64 W9        30.05F
PITTSBURGH INT CLOUDY    34  23  64 SW3       30.05S
PITTSBURGH     CLOUDY    32  20  61 W7        30.04S
INDIANA*       CLOUDY    32  23  69 W8        30.06S
LATROBE        CLOUDY    32  23  69 SW7       30.06F
WASHINGTON CO* CLOUDY    32  19  59 W6        30.06S
$$

PAZ004>006-010>012-017>019-024>028-033>037-041-042-045-046-049>053-080900-
CENTRAL PENNSYLVANIA

CITY           SKY/WX    TMP DP  RH WIND       PRES   REMARKS
BRADFORD       CLOUDY    28  22  78 W3        29.93F
DUBOIS         CLOUDY    30  21  69 SW9       29.98R
CLEARFIELD     CLOUDY    30  22  72 SW5       30.00S
JOHNSTOWN      CLOUDY    31  19  61 W8        29.98R
ALTOONA        CLOUDY    36  19  50 SW9       30.02R
STATE COLLEGE  CLOUDY    34  22  61 SW8       30.00S
WILLIAMSPORT   CLOUDY    37  25  61 CALM      30.00S
SELINSGROVE    CLOUDY    33  30  88 CALM      30.03S
FT INDIANTOWN  MOCLDY    31  29  90 N2        30.02S
CAPITAL CITY   CLOUDY    33  23  66 W5        30.03S
HARRISBURG     MOCLDY    35  26  69 SE3       30.02F
YORK           CLOUDY    28  26  92 CALM      30.03S
$$

PAZ038>040-043-044-047-048-054-055-060>062-067>071-080900-
EASTERN PENNSYLVANIA

CITY           SKY/WX    TMP DP  RH WIND       PRES   REMARKS
SCRANTON       CLOUDY    37  26  64 SW8       29.97F
MOUNT POCONO   CLOUDY    31  23  72 W10       29.93S
ALLENTOWN      CLOUDY    33  27  78 SW6       30.00F
QUAKERTOWN*    CLOUDY    28  28 100 CALM      30.01F
READING        CLOUDY    34  27  75 CALM      30.02F
LANCASTER      CLOUDY    32  29  88 W3        30.03F
COATESVILLE    CLOUDY    36  25  64 W5        30.02F
POTTSTOWN      CLOUDY    30  27  88 NW5       30.03F
BLUE BELL      CLOUDY    30  30 100 CALM      30.01F
DOYLESTOWN     CLOUDY    33  30  88 S3        30.00F
WILLOW GROVE   NOT AVBL
NORTH PHILA    CLOUDY    31  29  92 CALM      30.04S
PHILADELPHIA   CLOUDY    35  29  78 SW7       30.04S
$$



USA.gov is the U.S. government's official web portal to all federal, state and local government web resources and services.